Home > Weather > Gaziantep > Past weeks

Flag for Turkey Past Weather in Gaziantep, Turkey — Yesterday and Last 2 Weeks

Now
102 °F

Passing clouds.


Feels Like: 98 °F
Forecast: 71 / 94 °F
Wind: 7 mph from Southwest

Location: Gaziantep Airport

Current Time: Jun 26, 2016 at 2:59:03 PM

Latest Report: Jun 26, 2016 at 1:50 PM


Visibility: N/A

Pressure: 29.83 "Hg (27.16 "Hg at 856m altitude)

Humidity: 14%

Dew Point: 45 °F

Location of GaziantepLocation

Past Weather in Gaziantep — Graph

°F

Gaziantep Temperature Yesterday

Maximum temperature yesterday: 102 °F (at 1:20 PM)
Minimum temperature yesterday: 79 °F (at 4:50 AM)
Average temperature yesterday: 91 °F

High & Low Weather Summary for the Past Weeks

 TemperatureHumidityPressure
High104 °F (Jun 23, 2:50 PM)64% (Jun 13, 2:20 AM)30.01 "Hg (Jun 13, 2:20 AM)
Low63 °F (Jun 13, 2:20 AM)9% (Jun 23, 3:50 PM)27.53 "Hg (Jun 13, 10:50 AM)
Average84 °F30%29.85 "Hg
* Reported Jun 11 1:20 PM — Jun 26 1:20 PM, Gaziantep, Weather by CustomWeather, © 2016

Note: Actual official high and low records may vary slightly from our data, if they occured in-between our weather recording intervals... More about our weather records

Advertising

Gaziantep Weather History for the Previous 24 Hours

Scroll right to see more
 ConditionsComfort  
Time TempWeatherWind HumidityBarometerVisibility
1:20 PM
Sun, Jun 26
102 °FPassing clouds.8 mph14%29.83 "HgN/A
12:50 PM102 °FSunny.10 mph14%29.83 "Hg10 mi
12:20 PM100 °FSunny.7 mph16%29.83 "Hg10 mi
11:50 AM100 °FSunny.No wind17%29.86 "Hg10 mi
11:20 AM97 °FSunny.7 mph20%29.86 "Hg10 mi
10:50 AM97 °FSunny.7 mph20%29.86 "Hg10 mi
10:20 AM97 °FSunny.7 mph20%29.86 "Hg10 mi
9:50 AM95 °FSunny.10 mph22%29.86 "Hg10 mi
9:20 AM93 °FSunny.10 mph24%29.86 "Hg10 mi
8:50 AM93 °FSunny.10 mph24%29.86 "Hg10 mi
8:20 AM91 °FSunny.10 mph26%29.86 "Hg10 mi
7:50 AM90 °FSunny.10 mph29%29.86 "Hg10 mi
7:20 AM88 °FSunny.3 mph33%29.83 "Hg10 mi
6:50 AM86 °FSunny.3 mph35%29.83 "Hg10 mi
6:20 AM82 °FSunny.2 mph40%29.83 "Hg10 mi
5:50 AM81 °FClear.7 mph42%29.83 "Hg10 mi
5:20 AM77 °FClear.3 mph47%29.83 "Hg10 mi
4:50 AM79 °FClear.2 mph45%29.83 "Hg10 mi
4:20 AM77 °FClear.2 mph47%29.83 "Hg10 mi
3:50 AM77 °FClear.3 mph47%29.83 "Hg10 mi
3:20 AM81 °FClear.6 mph42%29.83 "Hg10 mi
2:50 AM81 °FClear.6 mph42%29.83 "Hg10 mi
2:20 AM82 °FClear.8 mph40%29.83 "Hg10 mi
1:50 AM81 °FClear.3 mph42%29.83 "Hg10 mi
1:20 AM82 °FClear.8 mph42%29.83 "Hg10 mi
12:50 AM82 °FClear.6 mph42%29.83 "Hg10 mi
12:20 AM84 °FClear.6 mph40%29.83 "Hg10 mi
11:50 PM
Sat, Jun 25
84 °FClear.7 mph40%29.83 "Hg10 mi
11:20 PM82 °FClear.7 mph42%29.83 "Hg10 mi
10:50 PM84 °FClear.10 mph40%29.83 "Hg10 mi
10:20 PM84 °FClear.7 mph40%29.83 "Hg10 mi
9:50 PM86 °FClear.8 mph33%29.83 "Hg10 mi
9:20 PM86 °FClear.12 mph38%29.83 "Hg10 mi
8:50 PM88 °FSunny.12 mph33%29.83 "Hg10 mi
8:20 PM90 °FSunny.10 mph26%29.83 "Hg10 mi
7:50 PM91 °FSunny.13 mph21%29.80 "Hg10 mi
7:20 PM93 °FSunny.16 mph16%29.80 "Hg10 mi
6:50 PM95 °FSunny.16 mph15%29.80 "Hg10 mi
6:20 PM97 °FSunny.18 mph13%29.80 "Hg10 mi
5:50 PM97 °FSunny.16 mph16%29.80 "Hg10 mi
5:20 PM99 °FSunny.18 mph17%29.80 "Hg10 mi
4:50 PM100 °FSunny.10 mph17%29.80 "Hg10 mi
4:20 PM100 °FSunny.13 mph13%29.80 "Hg10 mi
3:50 PM100 °FSunny.8 mph13%29.80 "Hg10 mi
3:20 PM102 °FSunny.14 mph12%29.80 "Hg10 mi
2:50 PM102 °FSunny.7 mph11%29.80 "Hg10 mi
2:20 PM100 °FSunny.7 mph14%29.80 "Hg10 mi
Weather by CustomWeather, © 2016

See weather overviewHow to use our weather pages